EW2136 Weather Reports


Display with metric or nautical units.
time (UTC)temp
F
wind
direction
speed
MPH
gust
MPH
rain 1hr
in
rain 24hr
in
rain mn
in
humidity
%
barometer
mb
20260507025006 56 274 0.0 2.0 0.00 0.00 0.00 83 1020.0
20260507024506 56 58 0.0 2.0 0.00 0.00 0.00 83 1020.0
20260507024005 56 65 0.0 2.0 0.00 0.00 0.00 83 1020.0
20260507023505 56 68 0.0 2.0 0.00 0.00 0.00 82 1019.9
20260507023005 56 63 1.0 2.0 0.00 0.00 0.00 82 1019.9
20260507022505 56 297 1.0 2.0 0.00 0.00 0.00 82 1019.9
20260507022006 56 271 1.0 2.0 0.00 0.00 0.00 82 1019.9
20260507021506 56 354 1.0 2.0 0.00 0.00 0.00 82 1019.8
20260507021005 56 32 0.0 2.0 0.00 0.00 0.00 82 1019.8
20260507015505 56 253 0.0 2.0 0.00 0.00 0.00 81 1019.8
20260507015005 56 261 1.0 3.0 0.00 0.00 0.00 81 1019.7
20260507014505 56 255 1.0 3.0 0.00 0.00 0.00 81 1019.8
20260507014006 56 253 1.0 3.0 0.00 0.00 0.00 81 1019.8
20260507013506 56 246 1.0 3.0 0.00 0.00 0.00 81 1019.8
20260507013005 56 247 1.0 3.0 0.00 0.00 0.00 80 1019.8
20260507012006 56 236 1.0 2.0 0.00 0.00 0.00 79 1019.9
20260507011506 56 102 1.0 4.0 0.00 0.00 0.00 79 1019.9
20260507010506 57 265 2.0 4.0 0.00 0.00 0.00 79 1019.9
20260507010005 57 240 1.0 4.0 0.00 0.00 0.00 78 1019.9
20260507005005 57 243 2.0 7.0 0.00 0.00 0.00 77 1020.0
20260507004505 57 247 2.0 7.0 0.00 0.00 0.00 76 1020.0
20260507004005 58 249 2.0 7.0 0.00 0.00 0.00 75 1019.9
20260507003505 58 244 1.0 4.0 0.00 0.00 0.00 76 1019.9
20260507003006 58 232 2.0 4.0 0.00 0.00 0.00 76 1019.8
20260507002506 58 239 2.0 8.0 0.00 0.00 0.00 76 1019.9
20260507002005 58 250 2.0 8.0 0.00 0.00 0.00 75 1019.9
20260507001005 58 96 2.0 6.0 0.00 0.00 0.00 75 1019.9
20260507000005 58 227 2.0 5.0 0.00 0.00 0.00 75 1019.9
20260506235505 58 232 1.0 4.0 0.00 0.00 0.00 75 1019.8
20260506235006 58 244 1.0 6.0 0.00 0.00 0.00 75 1019.8
20260506234505 58 257 2.0 8.0 0.00 0.00 0.00 75 1019.8
20260506234005 58 240 2.0 8.0 0.00 0.00 0.00 74 1019.9
20260506233006 58 262 2.0 6.0 0.00 0.00 0.00 74 1019.9
20260506232505 58 241 2.0 5.0 0.00 0.00 0.00 73 1019.9
20260506231505 58 244 2.0 5.0 0.00 0.00 0.00 74 1020.0
20260506231005 58 226 2.0 5.0 0.00 0.00 0.00 74 1019.8
20260506230505 58 201 2.0 4.0 0.00 0.00 0.00 73 1019.9
20260506230005 58 240 2.0 7.0 0.00 0.00 0.00 73 1019.9
20260506225005 58 165 2.0 9.0 0.00 0.00 0.00 72 1019.9
20260506224505 58 124 1.0 9.0 0.00 0.00 0.00 72 1019.9
20260506224005 58 133 1.0 4.0 0.00 0.00 0.00 72 1019.9
20260506223505 58 122 1.0 5.0 0.00 0.00 0.00 72 1019.9
20260506223005 58 91 1.0 5.0 0.00 0.00 0.00 72 1019.9
20260506222505 58 108 2.0 5.0 0.00 0.00 0.00 72 1020.0
20260506222005 58 214 2.0 5.0 0.00 0.00 0.00 72 1020.0
20260506221505 58 234 2.0 6.0 0.00 0.00 0.00 72 1020.0
20260506220505 58 225 2.0 7.0 0.00 0.00 0.00 72 1020.1
20260506220005 58 228 2.0 7.0 0.00 0.00 0.00 72 1020.2
20260506215505 58 249 2.0 7.0 0.00 0.00 0.00 72 1020.3
20260506215006 58 250 2.0 7.0 0.00 0.00 0.00 72 1020.2
20260506214504 58 248 2.0 4.0 0.00 0.00 0.00 73 1020.2
20260506214005 57 309 2.0 5.0 0.00 0.00 0.00 73 1020.2
20260506213505 57 282 2.0 6.0 0.00 0.00 0.00 74 1020.2
20260506213005 58 242 2.0 6.0 0.00 0.00 0.00 73 1020.2
20260506212505 58 238 2.0 6.0 0.00 0.00 0.00 73 1020.3
20260506212005 58 239 1.0 5.0 0.00 0.00 0.00 73 1020.3
20260506211505 58 252 2.0 6.0 0.00 0.00 0.00 72 1020.2
20260506211005 58 274 2.0 6.0 0.00 0.00 0.00 73 1020.2
20260506210504 58 333 1.0 3.0 0.00 0.00 0.00 75 1020.1
20260506210005 58 10 1.0 3.0 0.00 0.00 0.00 75 1020.1
20260506205505 57 236 2.0 5.0 0.00 0.00 0.00 77 1020.2
20260506205005 57 211 2.0 5.0 0.00 0.00 0.00 76 1020.2
20260506204505 57 92 1.0 4.0 0.00 0.00 0.00 78 1020.1
20260506204005 57 113 1.0 3.0 0.00 0.00 0.00 79 1020.1
20260506203505 57 123 1.0 3.0 0.00 0.00 0.00 78 1020.1
20260506203005 57 113 1.0 5.0 0.00 0.00 0.00 78 1020.2
20260506202505 57 95 2.0 5.0 0.00 0.00 0.00 78 1020.1
20260506202005 57 108 1.0 5.0 0.00 0.00 0.00 79 1020.1
20260506201505 57 128 1.0 6.0 0.00 0.00 0.00 79 1020.1
20260506201005 57 142 1.0 6.0 0.00 0.00 0.00 80 1020.1
20260506200505 57 202 1.0 4.0 0.00 0.00 0.00 79 1020.1
20260506200005 57 157 2.0 9.0 0.00 0.00 0.00 80 1020.2
20260506195005 56 104 1.0 4.0 0.00 0.00 0.00 81 1020.0
20260506194505 56 147 2.0 4.0 0.00 0.00 0.00 81 1020.0
20260506194004 56 136 2.0 4.0 0.00 0.00 0.00 80 1020.0
20260506193504 56 108 2.0 4.0 0.00 0.00 0.00 82 1020.0
20260506193005 56 107 2.0 4.0 0.00 0.00 0.00 81 1020.0
20260506192505 56 101 1.0 4.0 0.00 0.00 0.00 83 1020.0
20260506192005 56 93 1.0 8.0 0.00 0.00 0.00 82 1020.0
20260506191505 56 107 2.0 8.0 0.00 0.00 0.00 82 1020.0
20260506191005 55 151 2.0 6.0 0.00 0.00 0.00 83 1020.0
20260506190005 55 96 1.0 4.0 0.00 0.00 0.00 85 1020.0
20260506185505 55 77 1.0 4.0 0.00 0.00 0.00 85 1019.9
20260506184005 55 85 1.0 3.0 0.00 0.00 0.00 86 1019.9
20260506183505 55 103 1.0 3.0 0.00 0.00 0.00 87 1019.8
20260506182504 55 108 1.0 6.0 0.00 0.00 0.00 85 1019.8
20260506182005 55 100 1.0 6.0 0.00 0.00 0.00 86 1019.9
20260506181505 55 124 1.0 3.0 0.00 0.00 0.00 85 1019.8
20260506181004 55 119 1.0 3.0 0.00 0.00 0.00 86 1019.8
20260506180505 55 94 1.0 3.0 0.00 0.00 0.00 86 1019.9
20260506180006 55 70 1.0 3.0 0.00 0.00 0.00 87 1020.0
20260506175504 55 97 1.0 6.0 0.00 0.00 0.00 86 1019.7
20260506175005 55 98 2.0 6.0 0.00 0.00 0.00 87 1019.6
20260506174505 55 184 2.0 4.0 0.00 0.00 0.00 87 1019.4
20260506174004 55 172 2.0 5.0 0.00 0.00 0.00 86 1019.4
20260506173004 54 232 2.0 5.0 0.00 0.00 0.00 86 1019.5
20260506172505 54 242 2.0 5.0 0.00 0.00 0.00 86 1019.7
20260506172004 54 251 2.0 5.0 0.00 0.00 0.00 86 1019.7
20260506171505 54 249 2.0 5.0 0.00 0.00 0.00 86 1019.8
20260506170505 54 228 1.0 5.0 0.00 0.00 0.00 86 1019.6
20260506170005 54 231 1.0 5.0 0.00 0.00 0.00 86 1019.7
20260506165504 54 239 1.0 4.0 0.00 0.00 0.00 86 1019.7
20260506165005 54 239 1.0 4.0 0.00 0.00 0.00 87 1019.7
20260506164504 54 68 1.0 3.0 0.00 0.00 0.00 87 1019.5
20260506164005 54 249 1.0 3.0 0.00 0.00 0.00 87 1019.5
20260506163504 54 242 1.0 4.0 0.00 0.00 0.00 87 1019.5
20260506163005 54 254 1.0 6.0 0.00 0.00 0.00 87 1019.6
20260506162504 54 251 1.0 6.0 0.00 0.00 0.00 88 1019.6
20260506162004 54 95 1.0 4.0 0.00 0.00 0.00 89 1019.4
20260506161504 54 75 1.0 4.0 0.00 0.00 0.00 89 1019.3
20260506161005 54 75 1.0 4.0 0.00 0.00 0.00 89 1019.2
20260506160005 54 119 1.0 4.0 0.00 0.00 0.00 89 1019.0
20260506155505 54 117 1.0 4.0 0.00 0.00 0.00 89 1018.9
20260506155004 54 98 1.0 4.0 0.00 0.00 0.00 89 1018.9
20260506154504 54 123 1.0 4.0 0.00 0.00 0.00 89 1018.8
20260506154004 54 144 1.0 3.0 0.00 0.00 0.00 89 1019.0
20260506153504 54 103 1.0 4.0 0.00 0.00 0.00 89 1019.1
20260506153004 54 86 1.0 4.0 0.00 0.00 0.00 89 1019.1
20260506152004 54 198 1.0 2.0 0.00 0.00 0.00 89 1019.3
20260506151504 53 255 1.0 4.0 0.00 0.00 0.00 89 1019.3
20260506151005 54 270 1.0 4.0 0.00 0.00 0.00 88 1019.4
20260506150505 54 263 2.0 4.0 0.00 0.00 0.00 88 1019.4
20260506150004 54 244 2.0 4.0 0.00 0.00 0.00 88 1019.1
20260506145505 54 237 1.0 4.0 0.00 0.00 0.00 88 1019.0
20260506145004 54 228 1.0 3.0 0.00 0.00 0.00 88 1018.9
20260506144505 53 239 2.0 5.0 0.00 0.00 0.00 88 1018.8
20260506144004 53 243 2.0 5.0 0.00 0.00 0.00 88 1019.0
20260506143504 53 233 1.0 4.0 0.00 0.00 0.00 88 1019.0
20260506142504 53 249 1.0 3.0 0.00 0.00 0.00 89 1019.1
20260506142004 53 246 1.0 3.0 0.00 0.00 0.00 89 1018.9
20260506141504 53 215 0.0 2.0 0.00 0.00 0.00 89 1018.9
20260506140504 53 56 0.0 2.0 0.00 0.00 0.00 89 1018.9
20260506140005 53 235 1.0 2.0 0.00 0.00 0.00 89 1018.8
20260506135504 53 241 1.0 2.0 0.00 0.00 0.00 88 1018.8
20260506135004 53 228 1.0 5.0 0.00 0.00 0.00 88 1018.8
20260506134504 53 238 1.0 5.0 0.00 0.00 0.00 88 1018.8
20260506134004 53 243 2.0 4.0 0.00 0.00 0.00 88 1018.9
20260506133504 53 239 1.0 4.0 0.00 0.00 0.00 88 1018.7
20260506133004 54 230 1.0 3.0 0.00 0.00 0.00 87 1018.6
20260506132504 54 229 1.0 3.0 0.00 0.00 0.00 88 1018.7
20260506132004 54 235 0.0 2.0 0.00 0.00 0.00 88 1018.7
20260506131504 53 243 0.0 3.0 0.00 0.00 0.00 88 1018.6
20260506131004 53 233 1.0 3.0 0.00 0.00 0.00 88 1018.5
20260506130504 53 226 0.0 3.0 0.00 0.00 0.00 88 1018.4
20260506130005 53 38 0.0 2.0 0.00 0.00 0.00 89 1018.4
20260506125504 53 60 0.0 2.0 0.00 0.00 0.00 88 1018.3
20260506125004 53 74 0.0 2.0 0.00 0.00 0.00 88 1018.0
20260506124504 53 63 0.0 2.0 0.00 0.00 0.00 88 1018.1
20260506124004 53 74 0.0 2.0 0.00 0.00 0.00 88 1018.2
20260506123504 53 61 0.0 2.0 0.00 0.00 0.00 88 1018.2
20260506123004 53 46 0.0 2.0 0.00 0.00 0.00 87 1018.3
20260506122504 53 52 1.0 4.0 0.00 0.00 0.00 88 1018.2
20260506122004 53 25 1.0 4.0 0.00 0.00 0.00 88 1018.1
20260506121504 53 331 0.0 3.0 0.00 0.00 0.00 88 1018.0
20260506121004 53 278 0.0 3.0 0.00 0.00 0.00 88 1018.1
20260506120505 53 281 1.0 3.0 0.00 0.00 0.00 87 1018.1
20260506120005 53 53 0.0 2.0 0.00 0.00 0.00 88 1018.0
20260506115504 53 66 0.0 2.0 0.00 0.00 0.00 88 1018.0
20260506115004 53 198 1.0 2.0 0.00 0.00 0.00 88 1018.1
20260506114504 53 273 1.0 3.0 0.00 0.00 0.00 88 1018.0
20260506113503 53 204 1.0 3.0 0.00 0.00 0.00 88 1017.9
20260506113004 53 220 1.0 3.0 0.00 0.00 0.00 87 1017.8
20260506112504 53 240 1.0 5.0 0.00 0.00 0.00 87 1017.8
20260506111504 53 235 2.0 5.0 0.00 0.00 0.00 87 1017.6
20260506111004 53 242 1.0 5.0 0.00 0.00 0.00 87 1017.6
20260506110504 53 250 1.0 5.0 0.00 0.00 0.00 87 1017.6
20260506110004 53 235 1.0 3.0 0.00 0.00 0.00 87 1017.6
20260506105504 53 225 1.0 5.0 0.00 0.00 0.00 88 1017.5
20260506105004 53 232 1.0 5.0 0.00 0.00 0.00 88 1017.4
20260506104504 53 237 1.0 4.0 0.00 0.00 0.00 88 1017.4
20260506104004 53 244 0.0 4.0 0.00 0.00 0.00 88 1017.4
20260506103504 53 248 1.0 4.0 0.00 0.00 0.00 88 1017.4
20260506103004 53 238 1.0 4.0 0.00 0.00 0.00 88 1017.4
20260506102504 53 231 1.0 4.0 0.00 0.00 0.00 89 1017.4
20260506101504 53 231 1.0 3.0 0.00 0.00 0.00 90 1017.3
20260506101004 52 235 1.0 3.0 0.00 0.00 0.00 90 1017.3
20260506100504 52 232 1.0 3.0 0.00 0.00 0.00 90 1017.2
20260506100004 52 232 1.0 3.0 0.00 0.00 0.00 91 1017.2
20260506095503 52 229 1.0 3.0 0.00 0.00 0.00 91 1017.2
20260506095004 52 229 1.0 3.0 0.00 0.00 0.00 92 1017.1
20260506094504 51 226 1.0 3.0 0.00 0.00 0.00 92 1017.0
20260506094003 51 221 0.0 2.0 0.00 0.00 0.00 92 1016.9
20260506093504 51 241 1.0 3.0 0.00 0.00 0.00 92 1017.0
20260506093004 51 242 0.0 3.0 0.00 0.00 0.00 92 1016.9
20260506091504 51 233 0.0 1.0 0.00 0.00 0.00 91 1016.8
20260506091004 51 237 0.0 1.0 0.00 0.00 0.00 91 1016.7
20260506090504 51 227 0.0 1.0 0.00 0.00 0.00 91 1016.8
20260506090003 51 217 0.0 1.0 0.00 0.00 0.00 91 1016.8
20260506085504 51 46 0.0 1.0 0.00 0.00 0.00 91 1016.7
20260506085006 51 46 0.0 1.0 0.00 0.00 0.00 91 1016.7
20260506084506 51 0 0.0 0.0 0.00 0.00 0.00 91 1016.6
20260506084006 51 46 0.0 1.0 0.00 0.00 0.00 91 1016.6
20260506083506 51 47 0.0 1.0 0.00 0.00 0.00 91 1016.5
20260506083006 52 50 0.0 1.0 0.00 0.00 0.00 91 1016.5
20260506082506 52 51 0.0 2.0 0.00 0.00 0.00 90 1016.4
20260506082006 52 55 0.0 2.0 0.00 0.00 0.00 90 1016.3
20260506081505 52 108 0.0 1.0 0.00 0.00 0.00 90 1016.3
20260506081006 52 75 0.0 1.0 0.00 0.00 0.00 90 1016.3
20260506080506 52 63 0.0 1.0 0.00 0.00 0.00 90 1016.2
20260506073507 52 75 0.0 1.0 0.00 0.00 0.00 90 1016.1
20260506072506 52 73 0.0 2.0 0.00 0.00 0.00 90 1016.0
20260506072005 52 63 0.0 1.0 0.00 0.00 0.00 90 1016.0
20260506071506 52 55 0.0 1.0 0.00 0.00 0.00 89 1016.1
20260506071006 53 63 0.0 1.0 0.00 0.00 0.00 89 1016.0
20260506062005 54 78 0.0 1.0 0.00 0.00 0.00 88 1015.8
20260506061006 54 90 0.0 1.0 0.00 0.00 0.00 88 1015.7
20260506060506 54 46 0.0 1.0 0.00 0.00 0.00 87 1015.7
20260506051006 55 62 0.0 1.0 0.00 0.00 0.00 85 1015.2
20260506050505 55 70 0.0 2.0 0.00 0.00 0.00 85 1015.1
20260506044506 56 57 0.0 1.0 0.00 0.00 0.00 84 1014.9
20260506044005 56 71 0.0 1.0 0.00 0.00 0.00 84 1014.9
20260506043006 57 97 0.0 1.0 0.00 0.00 0.00 83 1014.9
20260506042505 57 332 0.0 1.0 0.00 0.00 0.00 83 1014.9
20260506042006 57 57 0.0 1.0 0.00 0.00 0.00 82 1014.9
20260506041505 57 61 0.0 1.0 0.00 0.00 0.00 82 1014.8
20260506041006 58 57 0.0 1.0 0.00 0.00 0.00 81 1014.8
20260506040505 58 35 0.0 1.0 0.00 0.00 0.00 81 1014.8
20260506035505 58 62 0.0 2.0 0.00 0.00 0.00 79 1014.7
20260506035005 59 61 0.0 2.0 0.00 0.00 0.00 79 1014.7
20260506034506 59 243 0.0 1.0 0.00 0.00 0.00 79 1014.6
20260506034005 59 238 0.0 1.0 0.00 0.00 0.00 78 1014.6
20260506033506 59 50 0.0 1.0 0.00 0.00 0.00 78 1014.6
20260506033006 60 26 0.0 1.0 0.00 0.00 0.00 78 1014.5
20260506032506 60 18 0.0 1.0 0.00 0.00 0.00 77 1014.5
20260506032005 60 23 0.0 1.0 0.00 0.00 0.00 77 1014.4
20260506031505 60 35 0.0 2.0 0.00 0.00 0.00 77 1014.5
20260506031005 60 42 0.0 2.0 0.00 0.00 0.00 76 1014.4
20260506030505 61 58 0.0 2.0 0.00 0.00 0.00 75 1014.5
20260506030005 61 120 1.0 2.0 0.00 0.00 0.00 75 1014.4
20260506025506 61 96 1.0 3.0 0.00 0.00 0.00 75 1014.3